#timestamp,LO_Frequency,Hit,StdDev 
1455984015.2,286046995.8,N
1455984035.0,286046995.0,N
1455984035.9,286046995.0,N
1455984055.8,286046996.0,N
1455984075.6,286046995.9,N
1455984095.4,286046993.8,N
1455984115.2,286046994.7,N
1455984135.1,286046992.6,Y
1455984136.0,286046992.6,P
1455984155.8,286046996.7,P
1455984175.7,286046999.1,N
1455984195.5,286046997.2,N
1455984215.3,286046996.3,N
1455984235.1,286046995.0,N
1455984255.9,286046995.4,N
1455984275.7,286046999.0,N
1455984295.5,286047000.5,N
1455984315.4,286047000.7,N
1455984335.2,286047001.0,N
1455984355.0,286046999.7,N
1455984355.9,286046999.7,N
1455984375.8,286047003.1,N
1455984395.6,286047007.3,N
1455984415.4,286047008.0,N
1455984435.3,286047007.9,N
1455984455.1,286047011.2,N
1455984456.0,286047011.2,N
1455984475.8,286047013.2,N
1455984495.7,286047015.3,N
1455984515.5,286047015.0,N
1455984535.3,286047017.9,N
1455984555.1,286047015.7,N
1455984575.9,286047016.5,N
1455984595.7,286047020.2,N
1455984615.5,286047019.8,N
1455984635.4,286047018.1,N
1455984655.2,286047018.5,N
1455984675.0,286047015.9,N
1455984675.9,286047015.9,N
1455984695.8,286047020.4,N
1455984715.6,286047016.3,N
1455984735.4,286047018.7,N
1455984755.3,286047017.9,N
1455984775.1,286047016.1,N
1455984776.0,286047016.1,N
1455984795.8,286047018.4,N
1455984815.7,286047018.8,N
1455984835.5,286047018.8,N
1455984855.3,286047018.9,Y
1455984875.2,286047005.5,P
1455984895.9,286047006.8,N
1455984915.7,286047007.1,N
1455984935.6,286047007.5,N
1455984955.4,286047001.4,N
1455984975.2,286047004.1,N
1455984995.0,286047001.0,N
1455984996.0,286047001.0,N
1455985015.8,286047000.9,N
1455985035.6,286047000.6,N
1455985055.4,286047001.4,N
1455985075.3,286047002.7,N
1455985095.1,286046997.0,N
1455985115.8,286046998.0,N
1455985135.7,286046996.6,N
1455985155.5,286046996.7,N
1455985175.3,286046999.3,N
1455985195.2,286046998.4,N
1455985215.9,286046996.9,N
1455985235.7,286046998.2,N
1455985255.6,286046999.1,N
1455985275.4,286046998.7,N
1455985295.2,286046998.2,N
1455985315.0,286047000.6,N
1455985315.9,286047000.6,N
1455985335.8,286047000.6,N
1455985355.6,286047000.6,N
1455985375.4,286047002.3,N
1455985395.3,286047001.4,N
1455985415.1,286047004.6,N
1455985416.0,286047004.6,N
1455985435.8,286047004.9,N
1455985455.7,286047005.6,N
1455985475.5,286047007.3,N
1455985495.3,286047007.8,N
1455985515.2,286047012.1,Y
1455985535.9,286047012.0,P
1455985555.7,286047009.5,N
1455985575.6,286047013.8,N
1455985595.4,286047015.0,Y
1455985615.2,286047004.5,P
1455985635.1,286047008.4,P
1455985636.0,286047008.4,P
1455985655.8,286047012.2,Y
1455985675.6,286047003.7,P
1455985695.5,286047005.6,N
1455985715.3,286047007.4,P
1455985735.1,286047007.0,Y
1455985755.9,286047002.8,P
1455985775.7,286046999.8,N
1455985795.5,286047001.7,N
1455985815.4,286047004.9,N
1455985835.2,286047006.2,N
1455985855.0,286047010.1,Y
1455985855.9,286047010.1,P
1455985875.8,286047007.0,N
1455985895.6,286047007.6,N
1455985915.4,286047005.6,N
1455985935.3,286047003.9,N
1455985955.1,286047002.9,N
1455985956.0,286047002.9,N
1455985975.8,286047003.2,N
1455985995.7,286047006.0,N
1455986015.5,286047003.0,N
1455986035.3,286047003.6,N
1455986055.2,286047007.2,Y
1455986075.9,286047002.6,P
1455986095.7,286047004.2,P
1455986115.5,286047001.3,N
1455986135.4,286047000.6,N
1455986155.2,286047000.6,N
1455986175.0,286046998.2,N
1455986175.9,286046998.2,N
1455986195.8,286046999.9,N
1455986215.6,286047000.3,N
1455986235.4,286046996.9,N
1455986255.3,286046998.4,N
1455986275.1,286047000.8,N
1455986276.0,286047000.8,N
1455986295.8,286046998.9,N
1455986315.7,286046995.1,N
1455986335.5,286046994.3,N
1455986355.3,286046992.3,N
1455986375.2,286046991.3,N
1455986395.9,286046987.4,Y
1455986415.7,286046988.1,P
1455986435.6,286046987.2,N
1455986455.4,286046983.9,P
1455986475.2,286046984.3,N
1455986495.1,286046984.2,N
1455986496.0,286046984.2,Y
1455986515.8,286046993.7,P
1455986535.6,286046991.1,P
1455986555.5,286046989.7,P
1455986575.3,286046987.1,Y
1455986595.1,286046995.8,P
1455986615.9,286046992.1,P
1455986635.7,286046992.9,P
1455986655.5,286046993.2,Y
1455986675.4,286047001.0,P
1455986695.2,286047002.3,N
1455986715.0,286047002.0,N
1455986715.9,286047002.0,N
1455986735.8,286047000.6,N
1455986755.6,286046997.0,N
1455986775.4,286046996.8,N
1455986795.3,286046996.3,N
1455986815.1,286046997.6,N
1455986816.0,286046997.6,N
1455986835.8,286046997.4,N
1455986855.7,286046998.0,N
1455986875.5,286046995.3,N
1455986895.3,286046996.4,N
1455986915.1,286046995.9,N
1455986935.9,286046996.0,N
1455986955.7,286046997.5,N
1455986975.5,286046995.4,N
1455986995.4,286046995.0,N
1455987015.2,286046996.7,N
1455987035.0,286046996.7,N
1455987035.9,286046996.7,N
1455987055.8,286046995.5,N
1455987075.6,286046996.0,N
1455987095.4,286046993.8,N
1455987115.3,286046994.1,N
1455987135.1,286046992.1,Y
1455987136.0,286046992.1,P
1455987155.8,286046997.2,N
1455987175.7,286046993.8,N
1455987195.5,286046992.3,Y
1455987215.3,286046999.1,P
1455987235.2,286047000.9,N
1455987255.9,286046998.3,N
1455987275.7,286046998.7,N
1455987295.6,286047000.6,N
1455987315.4,286046998.9,N
1455987335.2,286046999.5,N
1455987355.0,286046998.3,N
1455987356.0,286046998.3,N
1455987375.8,286046998.8,N
1455987395.6,286046998.1,N
1455987415.4,286046998.0,N
1455987435.3,286046993.8,Y
1455987455.1,286046995.9,P
1455987475.8,286046996.2,N
1455987495.7,286046999.6,N
1455987515.5,286046999.2,N
1455987535.3,286046997.7,N
1455987555.2,286046994.9,Y
1455987575.0,286046999.0,P
1455987575.9,286046999.0,N
1455987595.7,286047001.1,N
